Content
SEND FEEDBACK

Daily
Averages
Monthly
Summary
Germany

BOKLUND, GERMANY


Home > Europe > Germany
Elevation: 82 feet     Latitude: 54 28N     Longitude: 009 31E

WEATHER
 
SELECT A DAY
Number of Records: 26,904;   Date Range: 2/20/97 - 7/30/14
 
SHARE

PRINT THIS DATA

[ ← Previous Day ]
WEATHER ALMANAC - FEBRUARY 13, 2013
[ Next Day → ]
[ °C ]   °F
Weather ElementAverageHighLow
Temperature28.7 °F32 °F (2:20 pm)23 °F (2:20 am)
Dewpoint24.2 °F26.6 °F (10:20 am)23 °F (1:20 am)
Humidity83.6 %100 % (2:20 am)69 % (2:20 pm)
Barometer30.26 in30.33 in (5:20 pm)30.12 in (1:20 am)
Wind Speed3 mph5.8 mph (4:20 am)
Weather ElementAverage
Visibility5.9 mi
Wind DirectionSSW (199.6 °)

Weather ElementTotal
Precipitation---
Heating Degree Days37.5 (Base 65)
Averaged from 23 records on February 13, 2013
WEATHER CONDITIONS BREAKOUT
WIND DIRECTION BREAKOUT
WEATHER BY HOUR - FEBRUARY 13, 2013
[ °C ]   °F
Local TimeTemperatureDewpointHumidityBarometerVisibilityWind DirectionWind SpeedGust SpeedPrecipitationEventsConditions
1:20 AM24.8 °F23.0 °F93 %30.12 in5.0 miNorth (350°)3.5 mphMostly Cloudy
2:20 AM23.0 °F23.0 °F100 %30.15 in5.0 miNW (320°)3.5 mphMostly Cloudy
3:20 AM26.6 °F24.8 °F93 %30.15 in5.0 miNorth (350°)4.6 mphMostly Cloudy
4:20 AM26.6 °F24.8 °F93 %30.18 in6.2 miNorth (350°)5.8 mphMostly Cloudy
5:20 AM26.6 °F24.8 °F93 %30.18 in6.2 miNNE (20°)3.5 mphMostly Cloudy
6:20 AM26.6 °F24.8 °F93 %30.18 in5.6 miNNE (20°)2.3 mphMostly Cloudy
7:20 AM26.6 °F24.8 °F93 %30.21 in5.6 miNW (310°)3.5 mphMostly Cloudy
8:20 AM26.6 °F24.8 °F93 %30.24 in5.6 miWNW (300°)3.5 mphMostly Cloudy
9:20 AM28.4 °F24.8 °F86 %30.24 in5.6 miNorth (350°)2.3 mphMostly Cloudy
10:20 AM30.2 °F26.6 °F86 %30.27 in6.2 miCalmMostly Cloudy
11:20 AM30.2 °F24.8 °F80 %30.27 in6.2 miWest (280°)2.3 mphMostly Cloudy
12:20 PM30.2 °F24.8 °F80 %30.30 in6.2 miWSW (240°)2.3 mphMostly Cloudy
1:20 PM30.2 °F24.8 °F80 %30.30 in6.2 miNNW (330°)3.5 mphMostly Cloudy
2:20 PM32.0 °F23.0 °F69 %30.30 in6.2 miVariable1.2 mphMostly Cloudy
3:20 PM32.0 °F23.0 °F69 %30.30 in6.2 miWSW (250°)3.5 mphMostly Cloudy
4:20 PM32.0 °F23.0 °F69 %30.30 in6.2 miVariable1.2 mphMostly Cloudy
5:20 PM30.2 °F23.0 °F75 %30.33 in6.2 miSouth (180°)2.3 mphMostly Cloudy
6:20 PM30.2 °F23.0 °F75 %30.33 in6.2 miSouth (180°)3.5 mphMostly Cloudy
7:20 PM30.2 °F23.0 °F75 %30.33 in6.2 miSouth (170°)2.3 mphMostly Cloudy
8:20 PM30.2 °F23.0 °F75 %30.33 in6.2 miSSE (150°)3.5 mphMostly Cloudy
9:20 PM30.2 °F24.8 °F80 %30.33 in6.2 miSSE (150°)3.5 mphMostly Cloudy
10:20 PM28.4 °F24.8 °F86 %30.33 in6.2 miSSE (160°)3.5 mphScattered Clouds
11:20 PM28.4 °F24.8 °F86 %30.33 in6.2 miSE (130°)4.6 mphMostly Cloudy
Hourly data recorded from ETNS, located miles away from Boklund, Germany







STORIES FROM OUR PARTNERS